NOAA 16 DEB, 41229

Orbit data source: Space-Track

NOAA 16 DEB, 41229 is space debris in SSO originally from a launch on Thu, 21 Sep 2000 UTC launched from the Air Force Western Test Range (AFWTR). Debris objects in space refer to the collection of defunct objects orbiting the Earth. Examples of debris include non-operational satellites, rocket bodies, and fragments generated from explosions, collisions, or faulty payload assembly.

Loading next visibility...
Identifier
41229, 2000-055EJ
Orbit
SSO
Country
Flag of USUS
Related business
Manufacturer
Unknown
Mission
Spacecraft
Bus & Motor
Unknown
Mass
Unknown
Launch date (UTC)
2000-09-21 (25 years ago)
Launch vehicle
Unknown
Launch site
Air Force Western Test Range (AFWTR)
Object type
Payload
Rocket body
Debris
Shape & HBR
Unknown shape, 0.1 m
Radar Cross Section
Small (<0.1 m²)

Expand to show TLE details & history
Last TLE update: 1 day ago

TLE from 1 day ago
0 NOAA 16 DEB
1 41229U 00055EJ  25305.58543094  .00006482  00000-0  29126-2 0  9993
2 41229  98.9200 355.0131 0064253 177.9530 182.1921 14.21603760507284
Epoch: 2025-11-01T14:03Z
TLE epoch observation values (Epoch: 2025-11-01T14:03:01.233Z)
Latitude
-0.00007°
Longitude
103.14458°
Altitude
869.07 km
Speed
7.394 km/s
True Right ascension
23h 40m 03s
True Declination
0° 00' 00"
Sunlit
Object was in full shadow at epoch
Visualization orbit readout
Latitude
Unknown
Longitude
Unknown
Altitude
Unknown
Speed
Unknown
Apparent Right ascension
Unknown
Apparent Declination
Unknown
Sunlit
N/A
Visualization observer readout
Local Sidereal Time
13:14:46
Azimuth
Unknown
Elevation
Unknown
Doppler factor
Unknown
Orbital elements
Apogee altitude
863.332 km
Perigee altitude
770.869 km
Semi-major axis
7,195.238 km
Eccentricity
0.00643
Inclination
98.92°
RAAN
355.0131°
Arg. of periapsis
177.953°
True anomaly
182.16416°
Mean anomaly
182.1921°
Eccentric anomaly
182.17811°
Mean motion
3.55611 °/min
Orbital period
101.23 mins
BSTAR
0.0029126
Loading maneuver chart data...
Computing Atmospheric mass density...
Loading historical data...
Loading historical data...
Loading historical data...
Loading historical data...
Loading historical data...
Loading historical data...
Loading historical data...

Documentation

Showing up to 5 results
|